Regional Weather Roundup
Issued by NWS

Home | Current Version | Previous Version | Graphics & Text | Print | Product List | Glossary Off
Versions: 1 2 3 4 5 6 7 8 9 10 11 12 13 14 15 16 17 18 19 20 21 22 23 24 25 26 27 28 29 30 31 32 33 34 35 36 37 38 39 40 41 42 43 44 45 46 47 48 49 50

000
ASUS43 KMKX 081700
RWRWI

WISCONSIN REGIONAL WEATHER ROUNDUP
NATIONAL WEATHER SERVICE MILWAUKEE/SULLIVAN WI
1100 AM CST THU DEC 08 2016

NOTE: "FAIR" INDICATES FEW OR NO CLOUDS BELOW 12,000 FEET WITH NO
SIGNIFICANT WEATHER AND/OR OBSTRUCTIONS TO VISIBILITY.

WIZ001-002-006>008-014>016-023>028-081800-
NORTHWEST WISCONSIN

CITY           SKY/WX    TMP DP  RH WIND       PRES   REMARKS
SUPERIOR ARPT  CLOUDY    25  16  70 NW14G21   30.28R WCI  13
ASHLAND        NOT AVBL
HAYWARD        NOT AVBL
SIREN          CLOUDY    22  15  72 NW13G18   30.29R WCI  10
CUMBERLAND     CLOUDY    21  14  73 NW13G22   30.25R WCI   9
RICE LAKE      FLURRIES  23  16  77 NW8G18    30.27R WCI  13
CHETEK         CLOUDY    23  17  77 NW8G17    30.25R WCI  14
LADYSMITH      CLOUDY    24  17  76 NW14G21   30.22R WCI  12
EAU CLAIRE     NOT AVBL
MENOMONIE      CLOUDY    24  17  75 W16       30.28R WCI  11
NEW RICHMOND   FLURRIES  22  16  77 NW14      30.31R WCI  10
OSCEOLA        CLOUDY    24  17  77 NW13      30.35R WCI  12
$$

WIZ003>005-009-010-017-018-081800-
NORTH CENTRAL WISCONSIN

CITY           SKY/WX    TMP DP  RH WIND       PRES   REMARKS
MANITOWISH WTR FLURRIES  24  20  87 NW13      30.09R WCI  12
ARBOR VITAE    PTSUNNY   25  20  79 NW12G17   30.09R WCI  14
WOODRUFF       PTSUNNY   25  20  79 NW12G17   30.09R WCI  14
RHINELANDER    NOT AVBL
EAGLE RIVER    CLOUDY    25  17  73 NW12G18   30.06R WCI  14
LAND O LAKES   LGT SNOW  25  22  85 NW7       30.07R WCI  18
PHILLIPS       CLOUDY    22  17  81 NW13G18   30.14R WCI  10
TOMAHAWK       CLOUDY    24  17  75 W15G22    30.12R WCI  11
MEDFORD        CLOUDY    21  16  78 NW13G18   30.15R WCI   9
MERRILL        CLOUDY    24  17  75 NW12G17   30.14R WCI  13
$$

WIZ029-030-035-036-043>047-081800-
CENTRAL WISCONSIN

CITY           SKY/WX    TMP DP  RH WIND       PRES   REMARKS
WAUSAU         NOT AVBL
MOSINEE        CLOUDY    21  19  93 NW14      30.16R WCI   8
MARSHFIELD     NOT AVBL
STEVENS POINT  CLOUDY    20  15  81 W8        30.18R WCI  10
WAUPACA        CLOUDY    25  17  71 W10G23    30.17S WCI  15
WAUTOMA        NOT AVBL
WISC RAPIDS    NOT AVBL
CAMP DOUGLAS   NOT AVBL
$$

WIZ011>013-019>022-031-037>040-048>050-081800-
NORTHEAST WISCONSIN

CITY           SKY/WX    TMP DP  RH WIND       PRES   REMARKS
ANTIGO         CLOUDY    23  18  80 NW15      30.09R WCI  10
SHAWANO        MOSUNNY   29  19  64 W10G18    30.12S WCI  20
OCONTO         SUNNY     28  17  62 W13G25    30.09S WCI  18
STURGEON BAY   CLOUDY    27  19  74 W15       30.06S WCI  15
GREEN BAY      NOT AVBL
MANITOWOC      NOT AVBL
APPLETON       PTSUNNY   25  16  68 W16G28    30.13R WCI  12
CLINTONVILLE   SUNNY     27  18  69 NW16      30.14R WCI  14
OSHKOSH        NOT AVBL
$$

WIZ032>034-041-042-053>061-081800-
SOUTHWEST WISCONSIN

CITY           SKY/WX    TMP DP  RH WIND       PRES   REMARKS
LA CROSSE      NOT AVBL
SPARTA         CLOUDY    22  16  77 W9        30.28R WCI  12
VIROQUA        CLOUDY    19  15  83 W13       30.26R WCI   6
BOSCOBEL       NOT AVBL
PRAIRIE DU CHI FLURRIES  22  13  69 NW13G18   30.35R WCI   9
PLATTEVILLE    CLOUDY    19  14  82 W16G24    30.31S WCI   4
$$

WIZ056-057-062-063-064-067-068-081800-
SOUTH CENTRAL WISCONSIN

CITY           SKY/WX    TMP DP  RH WIND       PRES   REMARKS
REEDSBURG      LGT SNOW  19  14  80 W15       30.26R WCI   5
BARABOO/DELLS  FLURRIES  19  14  78 W14       30.24S WCI   6
LONE ROCK      NOT AVBL
MINERAL POINT  FLURRIES  21  14  73 W16G23    30.27R WCI   7
MADISON        NOT AVBL
MIDDLETON      MOSUNNY   22  15  74 W18       30.25R WCI   7
WATERTOWN      CLOUDY    19  13  76 W16G22    30.22R WCI   5
MONROE         PTSUNNY   19  12  73 W22       30.26S WCI   3
JANESVILLE     PTSUNNY   21  12  68 W15G22    30.27R WCI   8
$$

WIZ051-052-058>065-066-070>072-081800-
SOUTHEAST WISCONSIN

CITY           SKY/WX    TMP DP  RH WIND       PRES   REMARKS
MILWAUKEE      NOT AVBL
WAUKESHA       CLOUDY    19  10  68 W21G29    30.20S WCI   3
MILWAUKEE/TIMM PTSUNNY   21  10  63 W22G30    30.20S WCI   5
RACINE         NOT AVBL
BURLINGTON     MOSUNNY   24  17  74 W10G21    30.23S WCI  14
KENOSHA        NOT AVBL
FOND DU LAC    NOT AVBL
SHEBOYGAN      NOT AVBL
WEST BEND      NOT AVBL
JUNEAU         CLOUDY    19  13  76 W12G18    30.21S WCI   7
$$

LSZ147-162-081800-
LAKE SUPERIOR

STATION/POSITION TIME  TEMP    WIND        PRES    WAVE
                       AIR SEA DIR/SP/G            HT/PER
                 (UTC) (F)     (DEG/KT/KT) (MB)    (FT/S)
DEVILS ISLAND    1600   27     340/ 23/ 27 1023.2R
PORT WING        1630   27     330/ 17/ 21 1024.0R
SAXON HARBOR     1630   29     330/ 20/ 23 1021.7R
$$

LMZ867-665-643>646-081800-
LAKE MICHIGAN

STATION/POSITION TIME  TEMP    WIND        PRES    WAVE
                       AIR SEA DIR/SP/G            HT/PER
                 (UTC) (F)     (DEG/KT/KT) (MB)    (FT/S)
CHAMBERS ISLAND  1640   30     270/  7/ 17 1016.9R
NORTHPORT PIER   1640   30     300/ 14/ 22 1016.6R
SISTER BAY       1551   29     350/ 24/ 30   N/A
ALGOMA LAKESHORE 1621          300/ 12/ 18   N/A
KEWAUNEE LAKESHO 1630   24     290/ 13/ 20 1018.2R
SHEBOYGAN LAKESH 1600   21     280/ 22/ 30 1021.0R
PORT WASHINGTON  1630   22     270/ 11/ 25 1022.4S
MILWAUKEE LAKESH 1630   21     270/ 20/ 26   N/A
KENOSHA   LAKESH 1600   19     260/ 20/ 26 1023.4
$$

TC  - TEMPERATURE IN CELSIUS
VSB - VISIBILITY IN STATUTE MILES
WCI - WIND CHILL INDEX
HX  - HEAT INDEX





USA.gov is the U.S. government's official web portal to all federal, state and local government web resources and services.